Location: Beaurecueil
(43.5122°N, 5.5450°E)
Time: 00:31:50
(UTC+00:00)

Resurs 1-3 - Pass Details

Date: 18 September 2020
Orbit: 630 x 632 km, 97.9° (Epoch: 26 October)

Event Time Altitude Azimuth Distance (km) Brightness Sun altitude
Exits shadow 20:01:13 81° 261° (W) 646 3.6 -25.0°
Drops below altitude 10° 20:05:37 10° 345° (NNW) 2,023 6.7 -25.7°
Sets 20:07:50 0° 347° (NNW) 2,935 7.6 -26.1°
